Location: Moscow
(55.7500°N, 37.5830°E)
Time: 19:41:09
(UTC+03:00)

ISS - Pass Details

Date: 20 May 2021
Orbit: 417 x 422 km, 51.6° (Epoch: 16 June)

Event Time Altitude Azimuth Distance (km) Brightness Sun altitude
Rises 00:46:15 0° 273° (W) 2,372 0.1 -14.2°
Reaches altitude 10° 00:48:38 10° 258° (WSW) 1,506 -1.1 -14.1°
Enters shadow 00:50:21 20° 231° (SW) 1,051 -2.1 -14.1°
